2017-008DE

Last updated on Fri Mar 10 2017 00:15:03 GMT+0000 (Greenwich Mean Time)

1 42048U 17008DE 17068.69487254 .00001533 00000-0 70887-4 0 9997 2 42048 97.5106 130.2954 0008820 177.2880 182.8405 15.21672077 2562
UTC large
Height (km)
Speed (km/s)
/
Latitude / Longitude
Inclination (degrees)
Orbital Period (minutes)
Azimuth
Elevation
Range (km)
Doppler Factor

Next 0 passes for location: London (51.5072 / 0.1276)

Sorry there are no passes over London.